Overview Statistics Trail Chart Weather Telemetry Raw packets
 

This is the latest recevied weather packets stored in our database for station/object LX1CU-13. If no packets are shown the sender has not sent any weather packets the latest 10 day(s).

<< 1 2 3 4 >>
Time Temp. Humidity Pressure Rain* Wind** Luminosity Snow
1788596667 23.33° C 53% 1019 hPa 0 mm - - -
1788596367 23.89° C 54% 1018.9 hPa 0 mm - - -
1788596067 24.44° C 56% 1019 hPa 0 mm - - -
1788595767 23.89° C 58% 1019.1 hPa 0 mm - - -
1788595467 23.33° C 58% 1019.2 hPa 0 mm - - -
1788595167 23.33° C 57% 1019 hPa 0 mm - - -
1788594867 23.33° C 62% 1018.9 hPa 0 mm - - -
1788594567 22.22° C 63% 1018.8 hPa 0 mm - - -
1788594267 21.67° C 67% 1018.8 hPa 0 mm - - -
1788593967 20° C 73% 1018.8 hPa 0 mm - - -
1788593667 19.44° C 76% 1018.7 hPa 0 mm - - -
1788593367 18.89° C 77% 1018.7 hPa 0 mm - - -
1788593067 18.33° C 80% 1018.5 hPa 0 mm - - -
1788592767 17.78° C 83% 1018.4 hPa 0 mm - - -
1788592467 17.22° C 87% 1018.3 hPa 0 mm - - -
1788592167 16.11° C 89% 1018.1 hPa 0 mm - - -
1788591867 15° C 90% 1018.1 hPa 0 mm - - -
1788591567 14.44° C 90% 1018.1 hPa 0 mm - - -
1788591267 13.89° C 91% 1018 hPa 0 mm - - -
1788590967 13.89° C 91% 1017.9 hPa 0 mm - - -
1788590667 13.33° C 91% 1017.9 hPa 0 mm - - -
1788590368 12.78° C 91% 1017.9 hPa 0 mm - - -
1788590067 12.22° C 91% 1017.9 hPa 0 mm - - -
1788589768 11.67° C 91% 1017.7 hPa 0 mm - - -
1788589468 11.67° C 90% 1017.7 hPa 0 mm - - -

* Rain latest hour (hover to see other rain measurements)
** Current wind speed in m/s (hover to see current wind gust speed)